Regional Weather Roundup
Issued by NWS Tiyan, Guam

Home | Current Version | Previous Version | Text Only | Print | Product List | Glossary On
Versions: 1 2 3 4 5 6 7 8 9 10 11 12 13 14 15 16 17 18 19 20 21 22 23 24 25 26 27 28 29 30 31 32 33 34 35 36 37 38 39 40 41 42 43 44 45 46 47 48 49 50
098
ASGM40 PGUM 230312
RWRGUM
WEATHER ROUNDUP FOR THE MARIANAS
NATIONAL WEATHER SERVICE TIYAN GU
100 PM CHST THU FEB 23 2017

GUZ001>004-230400-
MARIANA ISLANDS-

CITY           SKY/WX    TMP DP  RH WIND       PRES   REMARKS
GUAM AIRPORT   PTSUNNY   88  75  66 NE16      29.94F HX  97
ANDERSEN AFB   PTSUNNY   82  75  78 E21       29.95F
ROTA AIRPORT   PTSUNNY   82  73  74 E18G25    29.96F
TINIAN AP      MOSUNNY   84  72  65 NE16      29.95F
SAIPAN AP      MOSUNNY   82  73  74 NE21      29.96F

$$





USA.gov is the U.S. government's official web portal to all federal, state and local government web resources and services.